Location: Newark
(49.5647°N, 8.2922°E)
Time: 21:38:38
(UTC+00:00)

Transit 2A - All Passes

Search period start: 18 February 2020 00:00
Search period end: 28 February 2020 00:00
Orbit: 600 x 959 km, 66.7° (Epoch: 18 February)

Date Brightness Start Highest point End Pass type
(mag) Time Alt. Az. Time Alt. Az. Time Alt. Az.
18 Feb - 12:49:54 10° SSE 12:53:19 23° ESE 12:56:48 10° ENE daylight
18 Feb - 14:31:55 10° SW 14:36:08 50° NW 14:40:30 10° NNE daylight
18 Feb - 16:18:00 10° WNW 16:20:25 14° NNW 16:22:55 10° N daylight
18 Feb - 19:47:34 10° NNW 19:50:54 18° NNE 19:54:26 10° ENE visible
18 Feb - 21:30:01 10° NNW 21:34:56 65° NE 21:40:20 10° SE visible
18 Feb - 23:13:45 10° WNW 23:17:47 24° WSW 23:22:06 10° SSW night (unlit)
19 Feb - 12:16:48 10° SE 12:19:24 16° ESE 12:22:03 10° ENE daylight
19 Feb - 13:57:38 10° SW 14:01:56 71° NW 14:06:25 10° NNE daylight
19 Feb - 15:43:01 10° WNW 15:45:57 17° NNW 15:48:59 10° NNE daylight
19 Feb - 19:13:36 10° NNW 19:16:27 15° NNE 19:19:25 10° ENE visible
19 Feb - 20:55:57 10° NNW 21:00:42 49° NE 21:05:58 10° ESE visible
19 Feb - 22:39:16 10° NW 22:43:47 33° WSW 22:48:42 10° S visible
20 Feb - 11:44:53 10° ESE 11:45:33 10° ESE 11:46:11 10° E daylight
20 Feb - 13:23:29 10° SSW 13:27:48 81° SE 13:32:17 10° NE daylight
20 Feb - 15:08:11 10° W 15:11:32 21° NNW 15:15:01 10° NNE daylight
20 Feb - 18:39:40 10° N 18:41:57 13° NNE 18:44:19 10° NE visible
20 Feb - 20:21:54 10° NNW 20:26:28 37° NE 20:31:27 10° ESE visible
20 Feb - 22:04:57 10° NW 22:09:45 46° WSW 22:15:02 10° S visible
21 Feb - 12:49:30 10° SSW 12:53:43 54° ESE 12:58:05 10° NE daylight
21 Feb - 14:33:27 10° W 14:37:10 26° NW 14:41:01 10° NNE daylight
21 Feb - 16:20:52 10° NNW 16:22:00 11° NNW 16:23:08 10° N daylight
21 Feb - 18:05:45 10° N 18:07:25 12° NNE 18:09:08 10° NE visible
21 Feb - 19:47:53 10° NNW 19:52:10 29° NE 19:56:48 10° E visible
21 Feb - 21:30:43 10° NW 21:35:40 64° WSW 21:41:10 10° SSE visible
21 Feb - 23:16:44 10° W 23:18:04 11° WSW 23:19:24 10° WSW night (unlit)
22 Feb - 12:15:44 10° S 12:19:41 37° ESE 12:23:47 10° NE daylight
22 Feb - 13:58:52 10° WSW 14:02:50 34° NW 14:07:00 10° NNE daylight
22 Feb - 15:45:39 10° NW 15:47:27 12° NNW 15:49:18 10° N daylight
22 Feb - 17:31:54 10° N 17:32:51 11° N 17:33:50 10° NNE visible
22 Feb - 19:13:54 10° NNW 19:17:49 23° NE 19:22:01 10° E visible
22 Feb - 20:56:32 10° NW 21:01:33 87° WSW 21:07:07 10° SSE visible
22 Feb - 22:41:04 10° WNW 22:44:10 16° WSW 22:47:26 10° SW visible
23 Feb - 11:42:10 10° SSE 11:45:43 25° ESE 11:49:21 10° ENE daylight
23 Feb - 13:24:24 10° WSW 13:28:35 46° NW 13:32:58 10° NNE daylight
23 Feb - 15:10:33 10° NW 15:12:56 14° NNW 15:15:23 10° N daylight
23 Feb - 18:39:55 10° NNW 18:43:25 19° NNE 18:47:09 10° ENE visible
23 Feb - 20:22:25 10° NNW 20:27:24 70° NE 20:32:54 10° SE visible
23 Feb - 22:06:15 10° WNW 22:10:13 23° WSW 22:14:28 10° SSW visible
24 Feb - 11:08:57 10° SSE 11:11:47 17° ESE 11:14:40 10° ENE daylight
24 Feb - 12:50:04 10° SW 12:54:22 66° NW 12:58:53 10° NNE daylight
24 Feb - 14:35:35 10° WNW 14:38:27 17° NNW 14:41:26 10° NNE daylight
24 Feb - 18:05:57 10° NNW 18:08:59 16° NNE 18:12:10 10° ENE visible
24 Feb - 19:48:20 10° NNW 19:53:12 52° NE 19:58:34 10° SE visible
24 Feb - 21:31:44 10° NW 21:36:14 31° WSW 21:41:06 10° S visible
25 Feb - 10:36:31 10° SE 10:37:55 11° ESE 10:39:20 10° E daylight
25 Feb - 12:15:54 10° SSW 12:20:13 87° SE 12:24:45 10° NE daylight
25 Feb - 14:00:43 10° W 14:04:01 20° NNW 14:07:28 10° NNE daylight
25 Feb - 15:49:01 10° N 15:49:06 10° N 15:49:11 10° N daylight
25 Feb - 17:31:59 10° N 17:34:29 14° NNE 17:37:05 10° NE visible
25 Feb - 19:14:18 10° NNW 19:18:57 40° NE 19:24:04 10° ESE visible
25 Feb - 20:57:23 10° NW 21:02:12 43° WSW 21:07:29 10° S visible
26 Feb - 11:41:53 10° SSW 11:46:08 59° ESE 11:50:33 10° NE daylight
26 Feb - 13:25:59 10° W 13:29:38 25° NW 13:33:29 10° NNE daylight
26 Feb - 15:13:24 10° NNW 15:14:32 11° N 15:15:40 10° N daylight
26 Feb - 16:58:02 10° N 16:59:58 12° NNE 17:01:57 10° NE daylight
26 Feb - 18:40:16 10° NNW 18:44:40 31° NE 18:49:27 10° ESE visible
26 Feb - 20:23:08 10° NW 20:28:08 60° WSW 20:33:40 10° SSE visible
26 Feb - 22:09:56 10° W 22:10:29 10° WSW 22:11:02 10° WSW visible
27 Feb - 11:08:03 10° S 11:12:05 40° ESE 11:16:17 10° NE daylight
27 Feb - 12:51:22 10° WSW 12:55:18 33° NW 12:59:28 10° NNE daylight
27 Feb - 14:38:13 10° NW 14:39:59 12° NNW 14:41:47 10° N daylight
27 Feb - 16:24:06 10° N 16:25:25 11° NNE 16:26:45 10° NNE daylight
27 Feb - 18:06:16 10° NNW 18:10:20 25° NE 18:14:43 10° E visible
27 Feb - 19:48:57 10° NW 19:54:02 82° SW 19:59:39 10° SSE visible
27 Feb - 21:33:38 10° WNW 21:36:36 15° WSW 21:39:41 10° SW visible
